This is the latest recevied weather packets stored in our database for station/object KR4CWL-13. If no packets are shown the sender has not sent any weather packets the latest 1 day(s).
| Time | Temp. | Humidity | Pressure | Rain* | Wind** | Luminosity | Snow |
|---|---|---|---|---|---|---|---|
| 1778019852 | 25° C | 43% | 1006.8 hPa | 0 mm | 2.24 m/s, 158° | - | - |
| 1778019252 | 25° C | 43% | 1006.8 hPa | 0 mm | 0 m/s | - | - |
| 1778018652 | 25° C | 42% | 1007.1 hPa | 0 mm | 0.89 m/s, 158° | - | - |
| 1778018052 | 25.56° C | 41% | 1006.8 hPa | 0 mm | 1.79 m/s, 158° | - | - |
| 1778017452 | 25.56° C | 41% | 1006.8 hPa | 0 mm | 1.79 m/s, 113° | - | - |
| 1778016852 | 25.56° C | 42% | 1007.1 hPa | 0 mm | 1.34 m/s, 158° | - | - |
| 1778016252 | 25.56° C | 43% | 1007.1 hPa | 0 mm | 2.24 m/s, 203° | - | - |
| 1778015652 | 25.56° C | 43% | 1007.1 hPa | 0 mm | 2.68 m/s, 45° | - | - |
| 1778015052 | 25.56° C | 42% | 1007.1 hPa | 0 mm | 3.13 m/s, 45° | - | - |
| 1778014452 | 25.56° C | 42% | 1007.1 hPa | 0 mm | 0.89 m/s, 45° | - | - |
| 1778013852 | 26.11° C | 42% | 1007.1 hPa | 0 mm | 2.24 m/s, 45° | - | - |
| 1778013252 | 26.11° C | 42% | 1007.1 hPa | 0 mm | 1.34 m/s, 158° | - | - |
| 1778012652 | 25.56° C | 42% | 1007.1 hPa | 0 mm | 1.79 m/s, 45° | - | - |
| 1778012052 | 26.67° C | 42% | 1007.1 hPa | 0 mm | 0.89 m/s, 315° | - | - |
| 1778011452 | 26.11° C | 42% | 1007.4 hPa | 0 mm | 0.89 m/s, 203° | - | - |
| 1778010852 | 26.11° C | 43% | 1007.8 hPa | 0 mm | 0.45 m/s, 135° | - | - |
| 1778010252 | 26.11° C | 43% | 1007.4 hPa | 0 mm | 3.13 m/s, 45° | - | - |
| 1778009652 | 26.67° C | 41% | 1007.8 hPa | 0 mm | 2.68 m/s, 225° | - | - |
| 1778009052 | 26.67° C | 39% | 1008.1 hPa | 0 mm | 3.13 m/s, 248° | - | - |
| 1778008452 | 27.22° C | 38% | 1008.1 hPa | 0 mm | 0.89 m/s, 45° | - | - |
| 1778007852 | 26.67° C | 40% | 1008.5 hPa | 0 mm | 1.79 m/s, 158° | - | - |
| 1778007252 | 27.22° C | 40% | 1008.5 hPa | 0 mm | 0 m/s | - | - |
| 1778006652 | 26.67° C | 41% | 1008.8 hPa | 0 mm | 1.79 m/s, 203° | - | - |
| 1778006052 | 27.22° C | 41% | 1008.8 hPa | 0 mm | 1.34 m/s, 315° | - | - |
| 1778005452 | 27.22° C | 41% | 1008.8 hPa | 0 mm | 2.68 m/s, 158° | - | - |
* Rain since midnight (hover to see other rain measurements)
** Current wind speed in m/s (hover to see current wind gust speed)